Regional Weather Roundup
Issued by NWS

Home | Current Version | Previous Version | Text Only | Print | Product List | Glossary On
Versions: 1 2 3 4 5 6 7 8 9 10 11 12 13 14 15 16 17 18 19 20 21 22 23 24 25 26 27 28
000
ASUS44 KJAN 202310
RWRMS

MISSISSIPPI HOURLY WEATHER ROUNDUP
NATIONAL WEATHER SERVICE JACKSON MS
600 PM CDT WED SEP 20 2017

NOTE: "FAIR: INDICATES FEW OR NO CLOUDS BELOW 12,000 FEET WITH NO
SIGNIFICANT WEATHER AND/OR OBSTRUCTIONS TO VISIBILITY.

MSZ001>002-007>008-010>013-018>021-025>028-034>036-210000-
NORTHWEST MISSISSIPPI

CITY           SKY/WX    TMP DP  RH WIND       PRES   REMARKS
BATESVILLE     FAIR      88  71  56 S6        29.96S HX  94
CLARKSDALE       N/A     88  73  62 S5        29.94S HX  96
CLEVELAND      FAIR      91  69  49 SW8       29.93S HX  95
GREENWOOD      MOSUNNY   88  74  63 S10       29.95S HX  96
GREENVILLE     SUNNY     89  68  49 S8        29.93S HX  93
OLIVE BRANCH   MOSUNNY  N/A N/A N/A S7        29.94S
OXFORD         FAIR      86  73  66 CALM      29.97S HX  93
TUNICA           N/A     88  72  58 SW10      29.94S HX  94
WINONA         FAIR      84  74  72 S5        29.96S HX  91
$$

MSZ003>006-009-014>017-022>024-029>033-037>039-210000-
NORTHEAST MISSISSIPPI

CITY           SKY/WX    TMP DP  RH WIND       PRES   REMARKS
COLUMBUS AFB   CLOUDY    85  74  69 SW8       29.96R HX  93
GOLDN TRIANGLE PTSUNNY   77  70  78 W7        29.93R
STARKVILLE     FAIR      81  70  69 W3        29.98F
TUPELO         MOSUNNY   88  72  58 E6        29.96S HX  94
$$

MSZ040-058-210000-
CENTRAL MISSISSIPPI

CITY           SKY/WX    TMP DP  RH WIND       PRES   REMARKS
JACKSON INTL   NOT AVBL
JACKSON HAWKNS LGT RAIN  73  72  96 NW5       29.99R
MADISON        FAIR      70  66  88 SE5       29.98S
MERIDIAN KEY   LGT RAIN  77  74  90 CALM      29.98F
MERIDIAN NAS   CLOUDY    81  73  78 SW3       29.98S
RAYMOND        FAIR      75  72  88 SW3       30.00R THUNDER
VICKSBURG VKS  CLEAR     88  73  62 SE5       29.97R HX  96
$$

MSZ059>079-210000-
SOUTH MISSISSIPPI

CITY           SKY/WX    TMP DP  RH WIND       PRES   REMARKS
HATTIESBURG    SUNNY     88  74  63 S5        29.97R HX  96
LAUREL         FAIR      78  69  73 CALM      29.97F
MCCOMB         SUNNY     87  69  54 S3        29.97R HX  91
NATCHEZ        SUNNY     89  73  59 S3        29.97  HX  97
PINE BELT      SUNNY     80  71  74 NW3       29.99R
$$

MSZ080>082-210000-
COASTAL MISSISSIPPI

CITY           SKY/WX    TMP DP  RH WIND       PRES   REMARKS
BAY ST LOUIS   PTSUNNY   81  73  78 E5        29.97S
BILOXI         CLOUDY    83  74  73 SW7       29.97R HX  90
PASCAGOULA     CLOUDY    83  75  77 SW5       29.97R HX  90
GULFPORT       CLOUDY    84  76  76 CALM      29.96R HX  93
$$

LAZ007>009-015>016-023>026-210000-
NORTHEAST LOUISIANA

CITY           SKY/WX    TMP DP  RH WIND       PRES   REMARKS
BASTROP        FAIR      89  72  55 CALM      29.94R HX  96
TALLULAH/VBURG SUNNY     87  76  69 SE10      29.96R HX  97
VIDALIA          N/A    N/A N/A N/A MISG      29.94R
$$




USA.gov is the U.S. government's official web portal to all federal, state and local government web resources and services.